• în România
  • Lista ţărilor
  • Pe 7 zile
  • Temperatura apei
  • Hartă satelitară
  • Meteo pe hartă
  • Widget-uri
  • user-avatar
    Intrare

    Meteo pe oră la Bambari

    Astăzi, 17 Decembrie, Duminică

    Timp Temperatura Precipitaţii Vânt Presiune Umiditate
    00:00 +29°C° 0 mm 1 m/s 720 mmHg 24%
    01:00 +27°C° 0 mm 1 m/s 720 mmHg 26%
    02:00 +27°C° 0 mm 1 m/s 720 mmHg 26%
    03:00 +26°C° 0 mm 1 m/s 720 mmHg 26%
    04:00 +26°C° 0 mm 1 m/s 720 mmHg 27%
    05:00 +26°C° 0 mm 2 m/s 720 mmHg 27%
    06:00 +27°C° 0 mm 2 m/s 721 mmHg 26%
    07:00 +28°C° 0 mm 2 m/s 721 mmHg 25%
    08:00 +31°C° 0 mm 2 m/s 721 mmHg 22%
    09:00 +34°C° 0 mm 2 m/s 721 mmHg 20%
    10:00 +37°C° 0 mm 2 m/s 721 mmHg 17%
    11:00 +39°C° 0 mm 2 m/s 721 mmHg 15%
    12:00 +41°C° 0 mm 2 m/s 720 mmHg 14%
    13:00 +42°C° 0 mm 1 m/s 720 mmHg 13%
    14:00 +42°C° 0 mm 1 m/s 719 mmHg 13%
    15:00 +41°C° 0 mm 1 m/s 718 mmHg 13%
    16:00 +40°C° 0 mm 1 m/s 718 mmHg 13%
    17:00 +37°C° 0 mm 1 m/s 718 mmHg 15%
    18:00 +35°C° 0 mm 1 m/s 718 mmHg 17%
    19:00 +33°C° 0 mm 1 m/s 718 mmHg 19%
    20:00 +32°C° 0 mm 1 m/s 719 mmHg 20%
    21:00 +32°C° 0 mm 1 m/s 719 mmHg 20%
    22:00 +31°C° 0 mm 1 m/s 719 mmHg 21%
    23:00 +30°C° 0 mm 1 m/s 719 mmHg 21%

    Mâine, 18 Decembrie, Luni

    Timp Temperatura Precipitaţii Vânt Presiune Umiditate
    00:00 +30°C° 0 mm 1 m/s 719 mmHg 22%
    01:00 +29°C° 0 mm 1 m/s 719 mmHg 22%
    02:00 +28°C° 0 mm 1 m/s 719 mmHg 23%
    03:00 +28°C° 0 mm 1 m/s 719 mmHg 23%
    04:00 +27°C° 0 mm 1 m/s 719 mmHg 23%
    05:00 +28°C° 0 mm 1 m/s 720 mmHg 23%
    06:00 +28°C° 0 mm 1 m/s 720 mmHg 22%
    07:00 +28°C° 0 mm 1 m/s 721 mmHg 22%
    08:00 +31°C° 0 mm 1 m/s 721 mmHg 20%
    09:00 +35°C° 0 mm 2 m/s 721 mmHg 17%
    10:00 +39°C° 0 mm 2 m/s 721 mmHg 15%
    11:00 +40°C° 0 mm 2 m/s 720 mmHg 14%
    12:00 +42°C° 0 mm 1 m/s 720 mmHg 13%
    13:00 +44°C° 0 mm 1 m/s 719 mmHg 11%
    14:00 +43°C° 0 mm 1 m/s 718 mmHg 12%
    15:00 +42°C° 0 mm 1 m/s 717 mmHg 12%
    16:00 +41°C° 0 mm 1 m/s 717 mmHg 13%
    17:00 +39°C° 0 mm 1 m/s 717 mmHg 15%
    18:00 +36°C° 0 mm 1 m/s 717 mmHg 17%
    19:00 +33°C° 0 mm 1 m/s 717 mmHg 18%
    20:00 +33°C° 0 mm 1 m/s 718 mmHg 19%
    21:00 +32°C° 0 mm 1 m/s 718 mmHg 20%
    22:00 +31°C° 0 mm 1 m/s 719 mmHg 20%
    23:00 +31°C° 0 mm 1 m/s 719 mmHg 20%

    Poimâine, 19 Decembrie, Marţi

    Timp Temperatura Precipitaţii Vânt Presiune Umiditate
    00:00 +31°C° 0 mm 1 m/s 718 mmHg 20%
    01:00 +31°C° 0 mm 1 m/s 718 mmHg 20%
    02:00 +31°C° 0 mm 1 m/s 718 mmHg 19%
    03:00 +31°C° 0 mm 1 m/s 718 mmHg 19%
    04:00 +30°C° 0 mm 1 m/s 718 mmHg 19%
    05:00 +30°C° 0 mm 1 m/s 719 mmHg 19%
    06:00 +31°C° 0 mm 1 m/s 719 mmHg 19%
    07:00 +31°C° 0 mm 1 m/s 720 mmHg 19%
    08:00 +34°C° 0 mm 2 m/s 720 mmHg 17%
    09:00 +37°C° 0 mm 3 m/s 720 mmHg 16%
    10:00 +39°C° 0 mm 3 m/s 721 mmHg 14%
    11:00 +40°C° 0 mm 3 m/s 720 mmHg 13%
    12:00 +42°C° 0 mm 3 m/s 719 mmHg 13%
    13:00 +42°C° 0 mm 2 m/s 718 mmHg 13%
    14:00 +41°C° 0 mm 2 m/s 717 mmHg 13%
    15:00 +41°C° 0 mm 2 m/s 717 mmHg 14%
    16:00 +41°C° 0 mm 2 m/s 716 mmHg 14%
    17:00 +38°C° 0 mm 2 m/s 717 mmHg 16%
    18:00 +36°C° 0 mm 2 m/s 717 mmHg 19%
    19:00 +33°C° 0 mm 1 m/s 718 mmHg 21%
    20:00 +33°C° 0 mm 1 m/s 718 mmHg 22%
    21:00 +32°C° 0 mm 1 m/s 718 mmHg 23%
    22:00 +31°C° 0 mm 1 m/s 719 mmHg 24%
    23:00 +31°C° 0 mm 1 m/s 719 mmHg 24%

    20 Decembrie, Miercuri

    Timp Temperatura Precipitaţii Vânt Presiune Umiditate
    00:00 +30°C° 0 mm 1 m/s 718 mmHg 25%
    01:00 +30°C° 0 mm 1 m/s 718 mmHg 26%
    02:00 +29°C° 0 mm 1 m/s 718 mmHg 27%
    03:00 +29°C° 0 mm 1 m/s 718 mmHg 28%
    04:00 +28°C° 0 mm 1 m/s 718 mmHg 28%
    05:00 +29°C° 0 mm 1 m/s 719 mmHg 28%
    06:00 +29°C° 0 mm 1 m/s 719 mmHg 28%
    07:00 +30°C° 0 mm 1 m/s 720 mmHg 28%
    08:00 +32°C° 0 mm 2 m/s 720 mmHg 27%
    09:00 +35°C° 0 mm 2 m/s 721 mmHg 26%
    10:00 +37°C° 0 mm 2 m/s 721 mmHg 25%
    11:00 +39°C° 0 mm 2 m/s 720 mmHg 23%
    12:00 +41°C° 0 mm 1 m/s 719 mmHg 21%
    13:00 +43°C° 0 mm 1 m/s 719 mmHg 19%
    14:00 +41°C° 0 mm 1 m/s 718 mmHg 20%
    15:00 +40°C° 0 mm 1 m/s 718 mmHg 21%
    16:00 +39°C° 0 mm 1 m/s 717 mmHg 22%
    17:00 +37°C° 0 mm 1 m/s 718 mmHg 25%
    18:00 +35°C° 0 mm 1 m/s 718 mmHg 28%
    19:00 +33°C° 0 mm 1 m/s 719 mmHg 30%
    20:00 +33°C° 0 mm 1 m/s 719 mmHg 32%
    21:00 +32°C° 0 mm 1 m/s 719 mmHg 35%
    22:00 +31°C° 0 mm 1 m/s 719 mmHg 37%
    23:00 +31°C° 0 mm 1 m/s 719 mmHg 41%

    21 Decembrie, Joi

    Timp Temperatura Precipitaţii Vânt Presiune Umiditate
    00:00 +30°C° 0 mm 1 m/s 719 mmHg 45%
    01:00 +29°C° 0 mm 1 m/s 719 mmHg 49%
    02:00 +29°C° 0 mm 1 m/s 719 mmHg 52%
    03:00 +29°C° 0 mm 1 m/s 719 mmHg 54%
    04:00 +28°C° 0 mm 1 m/s 719 mmHg 56%
    05:00 +29°C° 0 mm 1 m/s 720 mmHg 57%
    06:00 +29°C° 0 mm 1 m/s 721 mmHg 58%
    07:00 +29°C° 0 mm 1 m/s 721 mmHg 58%
    08:00 +32°C° 0 mm 1 m/s 721 mmHg 50%
    09:00 +35°C° 0 mm 1 m/s 722 mmHg 43%
    10:00 +39°C° 0 mm 1 m/s 722 mmHg 35%
    11:00 +41°C° 0 mm 1 m/s 721 mmHg 30%
    12:00 +42°C° 0 mm 1 m/s 720 mmHg 25%
    13:00 +44°C° 0 mm 1 m/s 719 mmHg 21%
    14:00 +42°C° 0 mm 1 m/s 719 mmHg 23%
    15:00 +40°C° 0 mm 1 m/s 718 mmHg 25%
    16:00 +37°C° 0 mm 1 m/s 718 mmHg 28%
    17:00 +36°C° 0 mm 1 m/s 718 mmHg 31%
    18:00 +34°C° 0 mm 1 m/s 719 mmHg 34%
    19:00 +33°C° 0 mm 1 m/s 719 mmHg 37%
    20:00 +32°C° 0 mm 1 m/s 719 mmHg 39%
    21:00 +32°C° 0 mm 1 m/s 719 mmHg 42%
    22:00 +31°C° 0 mm 1 m/s 720 mmHg 44%
    23:00 +30°C° 0 mm 1 m/s 720 mmHg 47%

    22 Decembrie, Vineri

    Timp Temperatura Precipitaţii Vânt Presiune Umiditate
    00:00 +30°C° 0 mm 1 m/s 719 mmHg 50%
    01:00 +29°C° 0 mm 1 m/s 719 mmHg 52%
    02:00 +28°C° 0 mm 1 m/s 719 mmHg 55%
    03:00 +28°C° 0 mm 1 m/s 719 mmHg 58%
    04:00 +28°C° 0 mm 1 m/s 720 mmHg 60%
    05:00 +28°C° 0 mm 1 m/s 720 mmHg 59%
    06:00 +29°C° 0 mm 2 m/s 720 mmHg 58%
    07:00 +29°C° 0 mm 2 m/s 721 mmHg 57%
    08:00 +32°C° 0 mm 2 m/s 721 mmHg 49%
    09:00 +36°C° 0 mm 2 m/s 721 mmHg 41%
    10:00 +39°C° 0 mm 2 m/s 721 mmHg 34%
    11:00 +40°C° 0 mm 2 m/s 720 mmHg 29%
    12:00 +42°C° 0 mm 1 m/s 719 mmHg 25%
    13:00 +43°C° 0 mm 1 m/s 719 mmHg 21%
    14:00 +42°C° 0 mm 1 m/s 718 mmHg 23%
    15:00 +40°C° 0 mm 1 m/s 718 mmHg 25%
    16:00 +38°C° 0 mm 2 m/s 717 mmHg 27%
    17:00 +36°C° 0 mm 1 m/s 718 mmHg 30%
    18:00 +35°C° 0 mm 1 m/s 718 mmHg 33%
    19:00 +34°C° 0 mm 1 m/s 718 mmHg 36%
    20:00 +34°C° 0 mm 2 m/s 719 mmHg 39%
    21:00 +32°C° 0 mm 2 m/s 719 mmHg 42%
    22:00 +31°C° 0 mm 2 m/s 719 mmHg 45%
    23:00 +31°C° 0 mm 2 m/s 719 mmHg 50%
    Arată mai mult

    XHprof extension not loaded